Location: Salillas
(41.9950°N, 0.2228°W)
Time: 00:55:17
(UTC+00:00)

Cosmos 1544 Rocket - Pass Details

Date: 29 March 2020
Orbit: 603 x 632 km, 82.5° (Epoch: 31 May)

Event Time Altitude Azimuth Distance (km) Brightness Sun altitude
Rises 19:04:41 0° 170° (S) 2,866 6.7 -8.4°
Reaches altitude 10° 19:06:58 10° 163° (SSE) 1,970 5.9 -8.8°
Maximum altitude 19:11:05 43° 92° (E) 878 3.9 -9.5°
Drops below altitude 10° 19:15:16 10° 22° (NNE) 2,002 6.1 -10.3°
Sets 19:17:36 0° 15° (NNE) 2,918 7.0 -10.7°
